| time (UTC) | temp F | wind direction | speed MPH | gust MPH | rain 1hr in | rain 24hr in | rain mn in | humidity % | barometer mb |
| 20260503184446 | 78 | 174 | 6.0 | 15.0 | 0.00 | 0.00 | 0.00 | 42 | 1022.4 |
| 20260503183946 | 78 | 128 | 6.0 | 15.0 | 0.00 | 0.00 | 0.00 | 43 | 1022.4 |
| 20260503183445 | 78 | 168 | 6.0 | 16.0 | 0.00 | 0.00 | 0.00 | 45 | 1022.6 |
| 20260503182945 | 77 | 184 | 6.0 | 16.0 | 0.00 | 0.00 | 0.00 | 44 | 1022.6 |
| 20260503182446 | 77 | 150 | 7.0 | 15.0 | 0.00 | 0.00 | 0.00 | 44 | 1022.7 |
| 20260503181946 | 77 | 187 | 6.0 | 15.0 | 0.00 | 0.00 | 0.00 | 44 | 1022.8 |
| 20260503181445 | 78 | 203 | 4.0 | 14.0 | 0.00 | 0.00 | 0.00 | 43 | 1022.9 |
| 20260503180945 | 78 | 240 | 5.0 | 14.0 | 0.00 | 0.00 | 0.00 | 45 | 1023.0 |
| 20260503180446 | 77 | 159 | 6.0 | 14.0 | 0.00 | 0.00 | 0.00 | 46 | 1023.1 |
| 20260503175942 | 77 | 188 | 5.0 | 14.0 | 0.00 | 0.00 | 0.00 | 42 | 1023.3 |
| 20260503175443 | 78 | 163 | 5.0 | 13.0 | 0.00 | 0.00 | 0.00 | 48 | 1023.5 |
| 20260503174943 | 77 | 175 | 5.0 | 13.0 | 0.00 | 0.00 | 0.00 | 45 | 1023.5 |
| 20260503174443 | 77 | 188 | 6.0 | 14.0 | 0.00 | 0.00 | 0.00 | 45 | 1023.6 |
| 20260503173943 | 77 | 180 | 7.0 | 14.0 | 0.00 | 0.00 | 0.00 | 48 | 1023.7 |
| 20260503173440 | 77 | 118 | 7.0 | 13.0 | 0.00 | 0.00 | 0.00 | 48 | 1023.7 |
| 20260503172939 | 77 | 157 | 6.0 | 13.0 | 0.00 | 0.00 | 0.00 | 46 | 1023.8 |
| 20260503172435 | 76 | 152 | 5.0 | 13.0 | 0.00 | 0.00 | 0.00 | 45 | 1023.8 |
| 20260503171934 | 76 | 192 | 5.0 | 12.0 | 0.00 | 0.00 | 0.00 | 53 | 1023.8 |
| 20260503171433 | 76 | 214 | 3.0 | 11.0 | 0.00 | 0.00 | 0.00 | 51 | 1024.0 |
| 20260503171206 | 75 | 190 | 3.0 | 10.0 | 0.00 | 0.00 | 0.00 | 49 | 1024.1 |
| 20260503170433 | 75 | 184 | 4.0 | 10.0 | 0.00 | 0.00 | 0.00 | 48 | 1024.1 |
| 20260503160138 | 73 | 186 | 5.0 | 15.0 | 0.00 | 0.00 | 0.00 | 52 | 1024.6 |
| 20260503150903 | 71 | 209 | 3.0 | 7.0 | 0.00 | 0.00 | 0.00 | 61 | 1024.6 |
| 20260503150404 | 70 | 232 | 4.0 | 8.0 | 0.00 | 0.00 | 0.00 | 63 | 1024.6 |
| 20260503150134 | 70 | 245 | 4.0 | 8.0 | 0.00 | 0.00 | 0.00 | 63 | 1024.5 |
| 20260503130831 | 58 | 239 | 2.0 | 5.0 | 0.00 | 0.00 | 0.00 | 83 | 1024.1 |
| 20260503130330 | 57 | 233 | 1.0 | 5.0 | 0.00 | 0.00 | 0.00 | 85 | 1024.0 |
| 20260503110823 | 48 | 225 | 1.0 | 3.0 | 0.00 | 0.00 | 0.00 | 94 | 1022.8 |
| 20260503110321 | 48 | 224 | 1.0 | 3.0 | 0.00 | 0.00 | 0.00 | 93 | 1022.7 |
| 20260503090308 | 51 | 217 | 1.0 | 4.0 | 0.00 | 0.00 | 0.00 | 93 | 1022.7 |
| 20260503081303 | 50 | 223 | 1.0 | 4.0 | 0.00 | 0.00 | 0.00 | 94 | 1022.7 |
| 20260503080802 | 50 | 221 | 1.0 | 4.0 | 0.00 | 0.00 | 0.00 | 93 | 1022.7 |
| 20260503080303 | 50 | 211 | 1.0 | 4.0 | 0.00 | 0.00 | 0.00 | 93 | 1022.7 |
| 20260503072243 | 51 | 195 | 0.0 | 1.0 | 0.00 | 0.00 | 0.00 | 93 | 1023.1 |
| 20260503071737 | 51 | 195 | 0.0 | 2.0 | 0.00 | 0.00 | 0.00 | 93 | 1023.0 |
| 20260503071231 | 51 | 0 | 1.0 | 2.0 | 0.00 | 0.00 | 0.00 | 92 | 1023.1 |
| 20260503070725 | 51 | 195 | 1.0 | 2.0 | 0.00 | 0.00 | 0.00 | 92 | 1023.1 |
| 20260503070219 | 51 | 0 | 1.0 | 3.0 | 0.00 | 0.00 | 0.00 | 92 | 1023.1 |
| 20260503054922 | 53 | 115 | 0.0 | 0.0 | 0.00 | 0.00 | 0.00 | 92 | 1023.3 |
| 20260503054202 | 53 | 116 | 0.0 | 0.0 | 0.00 | 0.00 | 0.00 | 92 | 1023.4 |
| 20260503053702 | 53 | 115 | 0.0 | 0.0 | 0.00 | 0.00 | 0.00 | 91 | 1023.4 |
| 20260503053203 | 53 | 115 | 0.0 | 0.0 | 0.00 | 0.00 | 0.00 | 92 | 1023.6 |
| 20260503052703 | 53 | 115 | 0.0 | 0.0 | 0.00 | 0.00 | 0.00 | 91 | 1023.5 |
| 20260503052203 | 53 | 115 | 0.0 | 0.0 | 0.00 | 0.00 | 0.00 | 91 | 1023.6 |
| 20260503051658 | 53 | 115 | 0.0 | 0.0 | 0.00 | 0.00 | 0.00 | 91 | 1023.6 |
| 20260503051156 | 53 | 115 | 0.0 | 0.0 | 0.00 | 0.00 | 0.00 | 91 | 1023.5 |
| 20260503050655 | 53 | 115 | 0.0 | 0.0 | 0.00 | 0.00 | 0.00 | 91 | 1023.5 |
| 20260503050155 | 53 | 112 | 0.0 | 0.0 | 0.00 | 0.00 | 0.00 | 90 | 1023.4 |
| 20260503045654 | 54 | 111 | 0.0 | 0.0 | 0.00 | 0.00 | 0.00 | 90 | 1023.3 |
| 20260503045155 | 54 | 112 | 0.0 | 0.0 | 0.00 | 0.00 | 0.00 | 90 | 1023.3 |
| 20260503044654 | 54 | 112 | 0.0 | 0.0 | 0.00 | 0.00 | 0.00 | 90 | 1023.3 |
| 20260503044417 | 54 | 106 | 0.0 | 0.0 | 0.00 | 0.00 | 0.00 | 90 | 1023.1 |
| 20260503043654 | 54 | 106 | 0.0 | 0.0 | 0.00 | 0.00 | 0.00 | 90 | 1023.3 |
| 20260503043421 | 54 | 106 | 0.0 | 0.0 | 0.00 | 0.00 | 0.00 | 89 | 1023.4 |
| 20260503042652 | 55 | 106 | 0.0 | 0.0 | 0.00 | 0.00 | 0.00 | 89 | 1023.3 |
| 20260503042153 | 55 | 107 | 0.0 | 0.0 | 0.00 | 0.00 | 0.00 | 89 | 1023.3 |
| 20260503041913 | 55 | 105 | 0.0 | 0.0 | 0.00 | 0.00 | 0.00 | 88 | 1023.3 |
| 20260503041412 | 55 | 106 | 0.0 | 0.0 | 0.00 | 0.00 | 0.00 | 88 | 1023.1 |
| 20260503040653 | 55 | 105 | 0.0 | 0.0 | 0.00 | 0.00 | 0.00 | 88 | 1023.0 |
| 20260503040152 | 56 | 105 | 0.0 | 0.0 | 0.00 | 0.00 | 0.00 | 88 | 1023.0 |
| 20260503035652 | 56 | 105 | 0.0 | 0.0 | 0.00 | 0.00 | 0.00 | 87 | 1023.0 |
| 20260503035152 | 56 | 105 | 0.0 | 0.0 | 0.00 | 0.00 | 0.00 | 87 | 1023.0 |
| 20260503034652 | 56 | 105 | 0.0 | 0.0 | 0.00 | 0.00 | 0.00 | 86 | 1023.0 |
| 20260503034152 | 56 | 105 | 0.0 | 0.0 | 0.00 | 0.00 | 0.00 | 86 | 1023.0 |
| 20260503033652 | 56 | 107 | 0.0 | 1.0 | 0.00 | 0.00 | 0.00 | 86 | 1022.9 |
| 20260503033152 | 56 | 104 | 1.0 | 2.0 | 0.00 | 0.00 | 0.00 | 86 | 1022.9 |
| 20260503032918 | 57 | 105 | 1.0 | 3.0 | 0.00 | 0.00 | 0.00 | 86 | 1022.9 |
| 20260503032903 | 56 | 104 | 1.0 | 3.0 | 0.00 | 0.00 | 0.00 | 86 | 1022.9 |
| 20260503031652 | 56 | 104 | 1.0 | 3.0 | 0.00 | 0.00 | 0.00 | 85 | 1022.8 |
| 20260503031645 | 56 | 0 | 1.0 | 3.0 | 0.00 | 0.00 | 0.00 | 86 | 1022.7 |
| 20260503030653 | 57 | 103 | 1.0 | 2.0 | 0.00 | 0.00 | 0.00 | 86 | 1022.6 |
| 20260503030153 | 57 | 104 | 1.0 | 3.0 | 0.00 | 0.00 | 0.00 | 85 | 1022.6 |
| 20260503025652 | 57 | 103 | 1.0 | 3.0 | 0.00 | 0.00 | 0.00 | 85 | 1022.6 |
| 20260503025152 | 57 | 103 | 1.0 | 3.0 | 0.00 | 0.00 | 0.00 | 84 | 1022.7 |
| 20260503024652 | 58 | 96 | 1.0 | 3.0 | 0.00 | 0.00 | 0.00 | 84 | 1022.6 |
| 20260503024417 | 58 | 97 | 1.0 | 2.0 | 0.00 | 0.00 | 0.00 | 84 | 1022.6 |
| 20260503023652 | 58 | 97 | 0.0 | 2.0 | 0.00 | 0.00 | 0.00 | 83 | 1022.5 |
| 20260503023150 | 58 | 98 | 0.0 | 0.0 | 0.00 | 0.00 | 0.00 | 83 | 1022.3 |
| 20260503022650 | 58 | 95 | 0.0 | 0.0 | 0.00 | 0.00 | 0.00 | 82 | 1022.1 |
| 20260503022148 | 58 | 96 | 0.0 | 0.0 | 0.00 | 0.00 | 0.00 | 82 | 1022.0 |
| 20260503021648 | 58 | 96 | 0.0 | 0.0 | 0.00 | 0.00 | 0.00 | 82 | 1022.0 |
| 20260503021146 | 59 | 95 | 0.0 | 0.0 | 0.00 | 0.00 | 0.00 | 81 | 1022.0 |
| 20260503020644 | 59 | 95 | 0.0 | 0.0 | 0.00 | 0.00 | 0.00 | 81 | 1022.0 |
| 20260503020142 | 59 | 95 | 0.0 | 0.0 | 0.00 | 0.00 | 0.00 | 80 | 1022.0 |
| 20260503015642 | 60 | 96 | 0.0 | 0.0 | 0.00 | 0.00 | 0.00 | 79 | 1021.9 |
| 20260503015142 | 60 | 95 | 0.0 | 0.0 | 0.00 | 0.00 | 0.00 | 78 | 1021.9 |
| 20260503014909 | 61 | 96 | 0.0 | 0.0 | 0.00 | 0.00 | 0.00 | 77 | 1022.0 |
| 20260503014136 | 61 | 95 | 0.0 | 0.0 | 0.00 | 0.00 | 0.00 | 76 | 1021.9 |
| 20260503013637 | 62 | 95 | 0.0 | 0.0 | 0.00 | 0.00 | 0.00 | 76 | 1021.9 |
| 20260503013134 | 62 | 95 | 0.0 | 0.0 | 0.00 | 0.00 | 0.00 | 74 | 1022.0 |
| 20260503012631 | 63 | 96 | 0.0 | 0.0 | 0.00 | 0.00 | 0.00 | 73 | 1021.9 |
| 20260503012129 | 63 | 95 | 0.0 | 0.0 | 0.00 | 0.00 | 0.00 | 72 | 1021.9 |
| 20260503011849 | 64 | 95 | 0.0 | 0.0 | 0.00 | 0.00 | 0.00 | 71 | 1021.8 |
| 20260503011118 | 65 | 95 | 0.0 | 0.0 | 0.00 | 0.00 | 0.00 | 70 | 1021.7 |
| 20260503010612 | 66 | 95 | 0.0 | 0.0 | 0.00 | 0.00 | 0.00 | 68 | 1021.8 |
| 20260503010105 | 67 | 95 | 0.0 | 1.0 | 0.00 | 0.00 | 0.00 | 65 | 1021.7 |
| 20260503005606 | 68 | 95 | 1.0 | 2.0 | 0.00 | 0.00 | 0.00 | 63 | 1021.7 |
| 20260503005105 | 69 | 95 | 1.0 | 4.0 | 0.00 | 0.00 | 0.00 | 62 | 1021.7 |
| 20260503005050 | 70 | 95 | 2.0 | 4.0 | 0.00 | 0.00 | 0.00 | 58 | 1021.7 |
| 20260503004106 | 70 | 96 | 2.0 | 4.0 | 0.00 | 0.00 | 0.00 | 55 | 1021.6 |
| 20260503003606 | 71 | 96 | 3.0 | 6.0 | 0.00 | 0.00 | 0.00 | 53 | 1021.4 |
| 20260503003104 | 71 | 0 | 2.0 | 6.0 | 0.00 | 0.00 | 0.00 | 52 | 1021.4 |
| 20260503002603 | 72 | 87 | 1.0 | 4.0 | 0.00 | 0.00 | 0.00 | 52 | 1021.5 |
| 20260503002102 | 72 | 88 | 1.0 | 4.0 | 0.00 | 0.00 | 0.00 | 52 | 1021.6 |
| 20260503001603 | 72 | 88 | 2.0 | 6.0 | 0.00 | 0.00 | 0.00 | 50 | 1021.5 |
| 20260503001102 | 72 | 90 | 2.0 | 6.0 | 0.00 | 0.00 | 0.00 | 48 | 1021.5 |
| 20260503000603 | 73 | 86 | 2.0 | 6.0 | 0.00 | 0.00 | 0.00 | 48 | 1021.5 |
| 20260503000052 | 74 | 40 | 2.0 | 6.0 | 0.00 | 0.00 | 0.00 | 47 | 1021.5 |
| 20260502235102 | 74 | 350 | 1.0 | 6.0 | 0.00 | 0.00 | 0.00 | 48 | 1021.4 |
| 20260502234603 | 74 | 13 | 2.0 | 6.0 | 0.00 | 0.00 | 0.00 | 49 | 1021.4 |
| 20260502234102 | 74 | 74 | 2.0 | 6.0 | 0.00 | 0.00 | 0.00 | 46 | 1021.3 |
| 20260502233604 | 74 | 29 | 3.0 | 8.0 | 0.00 | 0.00 | 0.00 | 48 | 1021.4 |
| 20260502233059 | 74 | 28 | 3.0 | 8.0 | 0.00 | 0.00 | 0.00 | 46 | 1021.4 |
| 20260502232554 | 74 | 25 | 3.0 | 8.0 | 0.00 | 0.00 | 0.00 | 46 | 1021.4 |
| 20260502232047 | 74 | 11 | 2.0 | 8.0 | 0.00 | 0.00 | 0.00 | 46 | 1021.4 |
| 20260502231823 | 74 | 22 | 2.0 | 6.0 | 0.00 | 0.00 | 0.00 | 47 | 1021.4 |
| 20260502231043 | 74 | 30 | 2.0 | 7.0 | 0.00 | 0.00 | 0.00 | 44 | 1021.5 |
| 20260502230544 | 74 | 42 | 2.0 | 8.0 | 0.00 | 0.00 | 0.00 | 46 | 1021.4 |
| 20260502230042 | 74 | 86 | 3.0 | 9.0 | 0.00 | 0.00 | 0.00 | 46 | 1021.3 |
| 20260502225541 | 74 | 84 | 3.0 | 9.0 | 0.00 | 0.00 | 0.00 | 46 | 1021.4 |
| 20260502225045 | 74 | 17 | 3.0 | 9.0 | 0.00 | 0.00 | 0.00 | 47 | 1021.3 |
| 20260502225038 | 74 | 11 | 3.0 | 9.0 | 0.00 | 0.00 | 0.00 | 45 | 1021.3 |
| 20260502224034 | 74 | 101 | 3.0 | 8.0 | 0.00 | 0.00 | 0.00 | 47 | 1021.3 |
| 20260502223757 | 74 | 87 | 3.0 | 9.0 | 0.00 | 0.00 | 0.00 | 47 | 1021.3 |
| 20260502223033 | 74 | 69 | 2.0 | 9.0 | 0.00 | 0.00 | 0.00 | 48 | 1021.4 |
| 20260502222801 | 74 | 99 | 3.0 | 8.0 | 0.00 | 0.01 | 0.00 | 47 | 1021.3 |
| 20260502222300 | 74 | 72 | 3.0 | 8.0 | 0.00 | 0.01 | 0.00 | 49 | 1021.4 |
| 20260502221531 | 74 | 48 | 3.0 | 8.0 | 0.00 | 0.02 | 0.00 | 48 | 1021.5 |
| 20260502221032 | 73 | 30 | 3.0 | 8.0 | 0.00 | 0.03 | 0.00 | 48 | 1021.5 |
| 20260502220755 | 74 | 30 | 4.0 | 10.0 | 0.00 | 0.03 | 0.00 | 49 | 1021.5 |
| 20260502220031 | 74 | 77 | 5.0 | 10.0 | 0.00 | 0.05 | 0.00 | 49 | 1021.6 |
| 20260502215531 | 74 | 66 | 4.0 | 10.0 | 0.00 | 0.06 | 0.00 | 50 | 1021.5 |
| 20260502215030 | 75 | 9 | 4.0 | 10.0 | 0.00 | 0.07 | 0.00 | 49 | 1021.4 |
| 20260502214531 | 74 | 334 | 4.0 | 10.0 | 0.00 | 0.08 | 0.00 | 49 | 1021.5 |
| 20260502214310 | 74 | 100 | 4.0 | 9.0 | 0.00 | 0.10 | 0.00 | 49 | 1021.6 |
| 20260502213531 | 74 | 39 | 4.0 | 9.0 | 0.00 | 0.12 | 0.00 | 46 | 1021.6 |
| 20260502213030 | 75 | 10 | 5.0 | 11.0 | 0.00 | 0.14 | 0.00 | 46 | 1021.6 |
| 20260502212531 | 75 | 12 | 5.0 | 11.0 | 0.00 | 0.15 | 0.00 | 47 | 1021.7 |
| 20260502212030 | 75 | 10 | 4.0 | 9.0 | 0.00 | 0.15 | 0.00 | 46 | 1021.8 |
| 20260502211531 | 74 | 11 | 3.0 | 10.0 | 0.00 | 0.15 | 0.00 | 48 | 1021.9 |
| 20260502211030 | 73 | 9 | 2.0 | 10.0 | 0.00 | 0.15 | 0.00 | 49 | 1022.0 |
| 20260502210529 | 73 | 105 | 4.0 | 10.0 | 0.00 | 0.15 | 0.00 | 47 | 1022.0 |
| 20260502210029 | 74 | 93 | 5.0 | 10.0 | 0.00 | 0.15 | 0.00 | 47 | 1022.1 |
| 20260502205529 | 74 | 114 | 5.0 | 9.0 | 0.00 | 0.15 | 0.00 | 46 | 1022.2 |
| 20260502205030 | 75 | 11 | 3.0 | 8.0 | 0.00 | 0.15 | 0.00 | 47 | 1022.3 |
| 20260502205015 | 74 | 0 | 4.0 | 11.0 | 0.00 | 0.15 | 0.00 | 47 | 1022.3 |
| 20260502204029 | 74 | 95 | 4.0 | 11.0 | 0.00 | 0.15 | 0.00 | 49 | 1022.4 |
| 20260502203530 | 73 | 71 | 4.0 | 9.0 | 0.00 | 0.15 | 0.00 | 46 | 1022.4 |
| 20260502203031 | 74 | 26 | 4.0 | 9.0 | 0.00 | 0.15 | 0.00 | 48 | 1022.4 |
| 20260502202529 | 74 | 33 | 4.0 | 9.0 | 0.00 | 0.15 | 0.00 | 50 | 1022.4 |
| 20260502202030 | 74 | 120 | 4.0 | 10.0 | 0.00 | 0.15 | 0.00 | 46 | 1022.4 |
| 20260502201530 | 74 | 82 | 4.0 | 12.0 | 0.00 | 0.15 | 0.00 | 47 | 1022.5 |
| 20260502201027 | 74 | 11 | 5.0 | 12.0 | 0.00 | 0.15 | 0.00 | 48 | 1022.6 |
| 20260502200528 | 73 | 18 | 5.0 | 12.0 | 0.00 | 0.15 | 0.00 | 49 | 1022.6 |
| 20260502200028 | 73 | 47 | 6.0 | 15.0 | 0.00 | 0.16 | 0.00 | 47 | 1022.6 |
| 20260502195527 | 73 | 74 | 5.0 | 15.0 | 0.00 | 0.16 | 0.00 | 48 | 1022.7 |
| 20260502195027 | 73 | 60 | 6.0 | 15.0 | 0.00 | 0.17 | 0.00 | 47 | 1022.7 |
| 20260502194527 | 73 | 22 | 6.0 | 15.0 | 0.00 | 0.17 | 0.00 | 48 | 1022.8 |
| 20260502194027 | 73 | 40 | 6.0 | 16.0 | 0.00 | 0.17 | 0.00 | 50 | 1022.7 |
| 20260502194011 | 73 | 36 | 7.0 | 16.0 | 0.00 | 0.18 | 0.00 | 52 | 1022.8 |
| 20260502194003 | 73 | 78 | 6.0 | 16.0 | 0.00 | 0.17 | 0.00 | 48 | 1022.8 |
| 20260502192528 | 73 | 0 | 6.0 | 16.0 | 0.00 | 0.18 | 0.00 | 50 | 1022.8 |
| 20260502192025 | 72 | 323 | 4.0 | 10.0 | 0.00 | 0.20 | 0.00 | 49 | 1022.7 |
| 20260502191525 | 72 | 71 | 4.0 | 10.0 | 0.00 | 0.21 | 0.00 | 52 | 1022.8 |
| 20260502191025 | 72 | 9 | 5.0 | 10.0 | 0.00 | 0.21 | 0.00 | 53 | 1022.7 |
| 20260502190525 | 72 | 32 | 4.0 | 10.0 | 0.00 | 0.21 | 0.00 | 51 | 1022.8 |
| 20260502190025 | 72 | 57 | 3.0 | 10.0 | 0.00 | 0.21 | 0.00 | 54 | 1022.8 |
| 20260502185800 | 72 | 22 | 5.0 | 15.0 | 0.00 | 0.21 | 0.00 | 55 | 1022.7 |
| 20260502185025 | 72 | 33 | 6.0 | 15.0 | 0.00 | 0.21 | 0.00 | 56 | 1022.8 |